Time,TemperatureF,DewpointF,PressureIn,WindDirection,WindDirectionDegrees,WindSpeedMPH,WindSpeedGustMPH,Humidity,HourlyPrecipIn,Conditions,Clouds,dailyrainin,SoftwareType,DateUTC
2013-03-21 00:02:00,57.0,56.0,0.00,NE,41,-999.0,0.0,95,-99.99,,,0.00,,2013-03-21 07:02:00,
2013-03-21 00:12:00,57.0,56.0,0.00,NE,41,-999.0,0.0,95,-99.99,,,0.00,,2013-03-21 07:12:00,
2013-03-21 00:21:00,55.0,55.0,-100.00,NNE,17,-999.0,-999.0,99,-99.99,,,-99.99,,2013-03-21 07:21:00,
2013-03-21 00:32:00,55.0,55.0,-100.00,NNE,17,-999.0,-999.0,99,-99.99,,,-99.99,,2013-03-21 07:32:00,
2013-03-21 00:42:00,55.0,55.0,-100.00,NNE,17,-999.0,-999.0,99,-99.99,,,-99.99,,2013-03-21 07:42:00,
2013-03-21 00:52:00,55.0,55.0,-100.00,East,95,-999.0,0.0,100,-99.99,,,0.00,,2013-03-21 07:52:00,
2013-03-21 01:02:00,55.0,55.0,-100.00,East,95,-999.0,0.0,100,-99.99,,,0.00,,2013-03-21 08:02:00,
2013-03-21 01:12:00,55.0,55.0,-100.00,East,95,-999.0,0.0,100,-99.99,,,0.00,,2013-03-21 08:12:00,
2013-03-21 01:22:00,55.0,55.0,-100.00,NE,56,-999.0,0.0,99,-99.99,,,-99.99,,2013-03-21 08:22:00,
2013-03-21 01:33:00,55.0,55.0,-100.00,NE,56,-999.0,0.0,99,-99.99,,,-99.99,,2013-03-21 08:33:00,
2013-03-21 01:42:00,55.0,55.0,-100.00,NE,56,-999.0,0.0,99,-99.99,,,-99.99,,2013-03-21 08:42:00,
2013-03-21 01:52:00,55.0,55.0,-100.00,NE,50,-999.0,0.0,100,-99.99,,,0.00,,2013-03-21 08:52:00,
2013-03-21 02:02:00,55.0,55.0,-100.00,NE,50,-999.0,0.0,100,-99.99,,,0.00,,2013-03-21 09:02:00,
2013-03-21 02:11:00,55.0,55.0,-100.00,NE,50,-999.0,0.0,100,-99.99,,,0.00,,2013-03-21 09:11:00,
2013-03-21 02:21:00,55.0,55.0,-100.00,NE,55,-999.0,0.0,100,-99.99,,,-99.99,,2013-03-21 09:21:00,
2013-03-21 02:33:00,55.0,55.0,-100.00,NE,55,-999.0,0.0,100,-99.99,,,-99.99,,2013-03-21 09:33:00,
2013-03-21 02:43:00,55.0,55.0,-100.00,NE,55,-999.0,0.0,100,-99.99,,,-99.99,,2013-03-21 09:43:00,
2013-03-21 02:53:00,54.0,54.0,0.00,NE,43,-999.0,0.0,100,-99.99,,,-99.99,,2013-03-21 09:53:00,
2013-03-21 03:02:00,54.0,54.0,0.00,NE,43,-999.0,0.0,100,-99.99,,,-99.99,,2013-03-21 10:02:00,
2013-03-21 03:12:00,54.0,54.0,0.00,NE,43,-999.0,0.0,100,-99.99,,,-99.99,,2013-03-21 10:12:00,
2013-03-21 03:22:00,55.0,55.0,-100.00,NNE,13,-999.0,0.0,100,-99.99,,,-99.99,,2013-03-21 10:22:00,
2013-03-21 03:33:00,55.0,55.0,-100.00,NNE,13,-999.0,0.0,100,-99.99,,,-99.99,,2013-03-21 10:33:00,
2013-03-21 03:42:00,55.0,55.0,-100.00,NNE,13,-999.0,0.0,100,-99.99,,,-99.99,,2013-03-21 10:42:00,
2013-03-21 03:52:00,57.0,56.0,-100.00,NNE,33,-999.0,0.0,96,-99.99,,,0.00,,2013-03-21 10:52:00,
2013-03-21 04:12:00,57.0,56.0,-100.00,NNE,33,-999.0,0.0,96,-99.99,,,0.00,,2013-03-21 11:12:00,
2013-03-21 04:22:00,55.0,55.0,-100.00,ESE,114,-999.0,0.0,99,-99.99,,,-99.99,,2013-03-21 11:22:00,
2013-03-21 04:33:00,55.0,55.0,-100.00,ESE,114,-999.0,0.0,99,-99.99,,,-99.99,,2013-03-21 11:33:00,
2013-03-21 04:42:00,55.0,55.0,-100.00,ESE,114,-999.0,0.0,99,-99.99,,,-99.99,,2013-03-21 11:42:00,
2013-03-21 04:52:00,55.0,54.0,-100.00,NNE,24,-999.0,0.0,98,-99.99,,,0.00,,2013-03-21 11:52:00,
2013-03-21 05:02:00,55.0,54.0,-100.00,NNE,24,-999.0,0.0,98,-99.99,,,0.00,,2013-03-21 12:02:00,
2013-03-21 05:12:00,55.0,54.0,-100.00,NNE,24,-999.0,0.0,98,-99.99,,,0.00,,2013-03-21 12:12:00,
2013-03-21 05:21:00,55.0,54.0,0.00,NNW,344,-999.0,0.0,98,-99.99,,,0.00,,2013-03-21 12:21:00,
2013-03-21 05:22:00,55.0,55.0,-100.00,North,4,-999.0,0.0,99,-99.99,,,-99.99,,2013-03-21 12:22:00,
2013-03-21 05:32:00,55.0,55.0,-100.00,North,4,-999.0,0.0,99,-99.99,,,-99.99,,2013-03-21 12:32:00,
2013-03-21 05:42:00,55.0,55.0,-100.00,North,4,-999.0,0.0,99,-99.99,,,-99.99,,2013-03-21 12:42:00,
2013-03-21 05:52:00,55.0,54.0,0.00,NNW,344,-999.0,0.0,98,-99.99,,,0.00,,2013-03-21 12:52:00,
2013-03-21 06:02:00,55.0,54.0,0.00,NNW,344,-999.0,0.0,98,-99.99,,,0.00,,2013-03-21 13:02:00,
2013-03-21 06:12:00,55.0,54.0,0.00,NNW,344,-999.0,0.0,98,-99.99,,,0.00,,2013-03-21 13:12:00,
2013-03-21 06:51:00,52.0,52.0,-100.00,NNE,26,-999.0,0.0,100,-99.99,,,-99.99,,2013-03-21 13:51:00,
2013-03-21 06:52:00,54.0,54.0,-100.00,ENE,66,-999.0,0.0,100,-99.99,,,0.00,,2013-03-21 13:52:00,
2013-03-21 07:21:00,52.0,52.0,-100.00,NNE,26,-999.0,0.0,100,-99.99,,,-99.99,,2013-03-21 14:21:00,
2013-03-21 07:32:00,52.0,52.0,-100.00,NNE,26,-999.0,0.0,100,-99.99,,,-99.99,,2013-03-21 14:32:00,
2013-03-21 07:42:00,52.0,52.0,-100.00,NNE,26,-999.0,0.0,100,-99.99,,,-99.99,,2013-03-21 14:42:00,
2013-03-21 07:51:00,56.0,54.0,-100.00,North,7,-999.0,0.0,94,-99.99,,,-99.99,,2013-03-21 14:51:00,
2013-03-21 08:22:00,56.0,54.0,-100.00,North,7,-999.0,0.0,94,-99.99,,,-99.99,,2013-03-21 15:22:00,
2013-03-21 08:42:00,56.0,54.0,-100.00,North,7,-999.0,0.0,94,-99.99,,,-99.99,,2013-03-21 15:42:00,
2013-03-21 10:21:00,65.0,56.0,-100.00,ENE,76,-999.0,0.0,73,-99.99,,,-99.99,,2013-03-21 17:21:00,
2013-03-21 10:53:00,65.0,56.0,-100.00,ENE,76,-999.0,0.0,73,-99.99,,,-99.99,,2013-03-21 17:53:00,
2013-03-21 11:02:00,65.0,56.0,-100.00,ENE,76,-999.0,0.0,73,-99.99,,,-99.99,,2013-03-21 18:02:00,
2013-03-21 11:12:00,65.0,56.0,-100.00,ENE,76,-999.0,0.0,73,-99.99,,,-99.99,,2013-03-21 18:12:00,
2013-03-21 11:52:00,71.0,59.0,0.00,SSW,192,-999.0,0.0,65,-99.99,,,0.00,,2013-03-21 18:52:00,
2013-03-21 12:02:00,71.0,59.0,0.00,SSW,192,-999.0,0.0,65,-99.99,,,0.00,,2013-03-21 19:02:00,
2013-03-21 12:12:00,71.0,59.0,0.00,SSW,192,-999.0,0.0,65,-99.99,,,0.00,,2013-03-21 19:12:00,
2013-03-21 12:22:00,68.0,59.0,-100.00,North,-999,-999.0,-999.0,74,-99.99,,,-99.99,,2013-03-21 19:22:00,
2013-03-21 12:32:00,68.0,59.0,-100.00,North,-999,-999.0,-999.0,74,-99.99,,,-99.99,,2013-03-21 19:32:00,
2013-03-21 12:42:00,68.0,59.0,-100.00,North,-999,-999.0,-999.0,74,-99.99,,,-99.99,,2013-03-21 19:42:00,
2013-03-21 12:51:00,65.0,59.0,-100.00,WNW,294,-999.0,0.0,81,-99.99,,,-99.99,,2013-03-21 19:51:00,
2013-03-21 12:52:00,66.0,59.0,-100.00,South,186,-999.0,0.0,78,-99.99,,,-99.99,,2013-03-21 19:52:00,
2013-03-21 13:02:00,66.0,59.0,-100.00,South,186,-999.0,0.0,78,-99.99,,,-99.99,,2013-03-21 20:02:00,
2013-03-21 13:12:00,66.0,59.0,-100.00,South,186,-999.0,0.0,78,-99.99,,,-99.99,,2013-03-21 20:12:00,
2013-03-21 13:22:00,65.0,59.0,-100.00,WNW,294,-999.0,0.0,81,-99.99,,,-99.99,,2013-03-21 20:22:00,
2013-03-21 13:33:00,65.0,59.0,-100.00,WNW,294,-999.0,0.0,81,-99.99,,,-99.99,,2013-03-21 20:33:00,
2013-03-21 13:42:00,65.0,59.0,-100.00,WNW,294,-999.0,0.0,81,-99.99,,,-99.99,,2013-03-21 20:42:00,
2013-03-21 14:53:00,66.0,59.0,0.00,South,175,-999.0,0.0,77,-99.99,,,-99.99,,2013-03-21 21:53:00,
2013-03-21 15:02:00,66.0,59.0,0.00,South,175,-999.0,0.0,77,-99.99,,,-99.99,,2013-03-21 22:02:00,
2013-03-21 15:12:00,66.0,59.0,0.00,South,175,-999.0,0.0,77,-99.99,,,-99.99,,2013-03-21 22:12:00,
2013-03-21 15:22:00,69.0,60.0,-100.00,South,172,-999.0,0.0,73,-99.99,,,-99.99,,2013-03-21 22:22:00,
2013-03-21 15:33:00,69.0,60.0,-100.00,South,172,-999.0,0.0,73,-99.99,,,-99.99,,2013-03-21 22:33:00,
2013-03-21 15:42:00,69.0,60.0,-100.00,South,172,-999.0,0.0,73,-99.99,,,-99.99,,2013-03-21 22:42:00,
2013-03-21 15:52:00,67.0,59.0,-100.00,South,169,-999.0,0.0,76,-99.99,,,-99.99,,2013-03-21 22:52:00,
2013-03-21 16:02:00,67.0,59.0,-100.00,South,169,-999.0,0.0,76,-99.99,,,-99.99,,2013-03-21 23:02:00,
2013-03-21 16:12:00,67.0,59.0,-100.00,South,169,-999.0,0.0,76,-99.99,,,-99.99,,2013-03-21 23:12:00,
2013-03-21 16:21:00,65.0,58.0,-100.00,West,267,-999.0,0.0,79,-99.99,,,-99.99,,2013-03-21 23:21:00,
2013-03-21 16:32:00,65.0,58.0,-100.00,West,267,-999.0,0.0,79,-99.99,,,-99.99,,2013-03-21 23:32:00,
2013-03-21 16:42:00,65.0,58.0,-100.00,West,267,-999.0,0.0,79,-99.99,,,-99.99,,2013-03-21 23:42:00,
2013-03-21 16:52:00,66.0,59.0,-100.00,West,272,-999.0,0.0,79,-99.99,,,-99.99,,2013-03-21 23:52:00,
2013-03-21 17:21:00,64.0,58.0,0.00,SW,222,-999.0,0.0,82,-99.99,,,-99.99,,2013-03-22 00:21:00,
2013-03-21 17:22:00,65.0,59.0,-100.00,South,189,-999.0,0.0,82,-99.99,,,-99.99,,2013-03-22 00:22:00,
2013-03-21 17:31:00,65.0,59.0,-100.00,South,189,-999.0,0.0,82,-99.99,,,-99.99,,2013-03-22 00:31:00,
2013-03-21 17:42:00,65.0,59.0,-100.00,South,189,-999.0,0.0,82,-99.99,,,-99.99,,2013-03-22 00:42:00,
2013-03-21 17:52:00,64.0,58.0,0.00,SW,222,-999.0,0.0,82,-99.99,,,-99.99,,2013-03-22 00:52:00,
2013-03-21 18:02:00,64.0,58.0,0.00,SW,222,-999.0,0.0,82,-99.99,,,-99.99,,2013-03-22 01:02:00,
2013-03-21 18:12:00,64.0,58.0,0.00,SW,222,-999.0,0.0,82,-99.99,,,-99.99,,2013-03-22 01:12:00,
2013-03-21 19:22:00,61.0,58.0,-100.00,SE,142,-999.0,0.0,90,-99.99,,,-99.99,,2013-03-22 02:22:00,
2013-03-21 19:32:00,61.0,58.0,-100.00,SE,142,-999.0,0.0,90,-99.99,,,-99.99,,2013-03-22 02:32:00,
2013-03-21 19:42:00,61.0,58.0,-100.00,SE,142,-999.0,0.0,90,-99.99,,,-99.99,,2013-03-22 02:42:00,
2013-03-21 19:51:00,60.0,58.0,-100.00,ENE,73,-999.0,0.0,94,-99.99,,,-99.99,,2013-03-22 02:51:00,
2013-03-21 20:02:00,60.0,58.0,-100.00,ENE,73,-999.0,0.0,94,-99.99,,,-99.99,,2013-03-22 03:02:00,
2013-03-21 20:21:00,59.0,58.0,-100.00,ENE,60,-999.0,0.0,96,-99.99,,,-99.99,,2013-03-22 03:21:00,
2013-03-21 20:33:00,59.0,58.0,-100.00,ENE,60,-999.0,0.0,96,-99.99,,,-99.99,,2013-03-22 03:33:00,
2013-03-21 20:42:00,59.0,58.0,-100.00,ENE,60,-999.0,0.0,96,-99.99,,,-99.99,,2013-03-22 03:42:00,
2013-03-21 20:51:00,56.0,56.0,-100.00,ENE,70,-999.0,0.0,100,-99.99,,,-99.99,,2013-03-22 03:51:00,
2013-03-21 21:22:00,56.0,56.0,-100.00,ENE,70,-999.0,0.0,100,-99.99,,,-99.99,,2013-03-22 04:22:00,
2013-03-21 21:32:00,56.0,56.0,-100.00,ENE,70,-999.0,0.0,100,-99.99,,,-99.99,,2013-03-22 04:32:00,
2013-03-21 21:42:00,56.0,56.0,-100.00,ENE,70,-999.0,0.0,100,-99.99,,,-99.99,,2013-03-22 04:42:00,
2013-03-21 23:22:00,53.0,53.0,-100.00,ENE,72,-999.0,0.0,100,-99.99,,,-99.99,,2013-03-22 06:22:00,
2013-03-21 23:32:00,53.0,53.0,-100.00,ENE,72,-999.0,0.0,100,-99.99,,,-99.99,,2013-03-22 06:32:00,
2013-03-21 23:42:00,53.0,53.0,-100.00,ENE,72,-999.0,0.0,100,-99.99,,,-99.99,,2013-03-22 06:42:00,
2013-03-21 23:51:00,54.0,54.0,-100.00,NE,45,-999.0,0.0,100,-99.99,,,-99.99,,2013-03-22 06:51:00,
2013-03-21 23:52:00,54.0,54.0,0.00,NE,53,-999.0,0.0,100,-99.99,,,0.00,,2013-03-22 06:52:00,